Regional Weather Roundup
Issued by NWS Sioux Falls, SD

Home | Current Version | Previous Version | Graphics & Text | Print | Product List | Glossary On
Versions: 1 2 3 4 5 6 7 8 9 10 11 12 13 14 15 16 17 18 19 20 21 22 23 24 25 26 27 28 29 30 31 32 33 34 35 36 37 38 39 40 41 42 43 44 45 46 47 48 49 50
000
ASUS43 KFSD 300202
RWRFSD

WEATHER ROUNDUP FOR SE SOUTH DAKOTA/SW MINNESOTA/NW IOWA
NATIONAL WEATHER SERVICE SIOUX FALLS SD
900 PM CDT FRI JUL 29 2016

NOTE: "FAIR" INDICATES FEW OR NO CLOUDS BELOW 12,000 FEET WITH NO
SIGNIFICANT WEATHER AND OR OBSTRUCTIONS TO VISIBILITY.


SDZ038>040-050-052>070-300300-
SOUTHEAST SOUTH DAKOTA

CITY           SKY/WX    TMP DP  RH WIND       PRES   REMARKS
BROOKINGS      CLEAR     70  58  65 SE7       30.05R
CHAMBERLAIN    CLOUDY    74  59  60 S7        30.02S
HURON          CLEAR     74  54  49 SE8       30.00R
MADISON        FAIR      64  59  82 SE6       30.05R
MITCHELL       PTCLDY    73  56  54 SE8       30.03R
SIOUX FALLS    PTCLDY    70  56  61 E8        30.04R
WINNER         FAIR      73  61  65 SE7       30.02S
YANKTON        CLEAR     72  57  60 E6        30.01R
$$

MNZ071-072-080-081-089-090-097-098-300300-
SOUTHWEST MINNESOTA

CITY           SKY/WX    TMP DP  RH WIND       PRES   REMARKS
FAIRMONT       CLOUDY    66  57  72 N5        30.02S
JACKSON        CLEAR     64  55  72 NE3       30.05S
LUVERNE        CLEAR     68  55  64 E3        30.05R
MARSHALL       CLEAR     71  57  61 E5        30.04R
MONTEVIDEO     CLEAR     70  57  64 CALM      30.05S
REDWOOD FALLS  CLEAR     71  56  58 E3        30.03S
TRACY          CLEAR     69  61  74 CALM      30.05R
WINDOM         CLEAR     66  57  72 CALM      30.05R
WORTHINGTON    CLEAR     67  58  72 NE5       30.06R
$$

IAZ001>003-012>014-020>022-031-032-NEZ013-014-SDZ071-300300-
NORTHWEST IOWA

CITY           SKY/WX    TMP DP  RH WIND       PRES   REMARKS
CHEROKEE       CLEAR     68  62  81 CALM      30.03R
DENISON        MOCLDY    68  63  83 CALM      30.01S
ESTHERVILLE    CLEAR     65  58  78 N6        30.03S
LE MARS        CLEAR     73  61  64 CALM      30.03S
SHELDON        CLEAR     66  61  82 NE5       30.03S
SIOUX CITY     CLEAR     72  61  68 E5        30.02R
SPENCER        CLEAR     66  58  75 NE7       30.03S
STORM LAKE     CLEAR     66  63  88 CALM      30.04R
$$

ABBREVIATIONS USED IN REMARKS
   TC - TEMPERATURE IN CELSIUS
  WCI - WIND CHILL INDEX
   HX - HEAT INDEX
  VSB - VISIBILITY





USA.gov is the U.S. government's official web portal to all federal, state and local government web resources and services.